Weather History for Gastonia, NC

Change the Weather History Date:

Wednesday, October 17, 2012

  Actual Average (KCLT) Record (KCLT)
Temperature  
Mean Temperature 58 °F 60 °F  
Max Temperature 72 °F 71 °F 85 °F (1962)
Min Temperature 45 °F 48 °F 35 °F (2001)
Degree Days  
Heating Degree Days 7 6  
Month to date heating degree days 72  
Since 1 July heating degree days 95  
Cooling Degree Days 0 1  
Month to date cooling degree days 30  
Year to date cooling degree days 1505  
Growing Degree Days 8 (Base 50)    
Moisture  
Dew Point 47 °F    
Average Humidity 74    
Maximum Humidity 100    
Minimum Humidity 41    
Precipitation  
Precipitation 0.00 in 0.11 in 1.90 in (2006)
Month to date precipitation 1.97  
Year to date precipitation 33.81  
Snow  
Snow 0.00 in 0.00 in 0.00 in ()
Month to date snowfall 0.0  
Since 1 July snowfall 0.0  
Since 1 September snowfall 0.0  
Snow Depth -    
Sea Level Pressure  
Sea Level Pressure 29.94 in    
Wind  
Wind Speed 1 mph (SSE)    
Max Wind Speed 8 mph    
Max Gust Speed -    
Visibility 10 miles    
Events      
T = Trace of Precipitation, MM = Missing Value Source: NWS Daily Summary

Daily Weather History Graph

Daily Weather History Graph

Search for Another Location

Airport:

Trip Planner

Search our weather history database for the weather conditions in past years. The results will help you decide how hot, cold, wet, or windy it might be!

Date:

Astronomy

Oct. 17, 2012 Rise Set
Actual Time 7:32 AM EDT 6:46 PM EDT
Civil Twilight 7:07 AM EDT 7:11 PM EDT
Nautical Twilight 6:37 AM EDT 7:41 PM EDT
Astronomical Twilight 6:08 AM EDT 8:10 PM EDT
Moon 9:58 AM EDT (10/17) 8:28 PM EDT (10/17)
Length of Visible Light 12h 04m
Length of Day
11h 13m
Waxing Crescent, 7% of the Moon is Illuminated
Oct 17
Waxing Crescent
Oct 21
First Quarter
Oct 29
Full
Nov 6
Last Quarter
Nov 13
New

Hourly Weather History & Observations

Time (EDT) Temp. Windchill Dew Point Humidity Pressure Visibility Wind Dir Wind Speed Gust Speed Precip Events Conditions
12:54 AM 48.9 °F - 46.9 °F 93% 29.93 in 10.0 mi Calm Calm - N/A   Clear
1:54 AM 48.0 °F - 46.9 °F 96% 29.93 in 10.0 mi Calm Calm - N/A   Clear
2:54 AM 46.9 °F - 45.0 °F 93% 29.94 in 10.0 mi Calm Calm - N/A   Clear
3:54 AM 46.0 °F - 44.1 °F 93% 29.94 in 9.0 mi Calm Calm - N/A   Clear
4:54 AM 45.0 °F - 44.1 °F 97% 29.93 in 8.0 mi Calm Calm - N/A   Clear
5:54 AM 46.0 °F - 44.1 °F 93% 29.94 in 8.0 mi Calm Calm - N/A   Clear
6:54 AM 46.0 °F 44.8 °F 45.0 °F 96% 29.96 in 9.0 mi ENE 3.5 mph - N/A   Clear
7:54 AM 46.9 °F - 45.0 °F 93% 29.97 in 8.0 mi Calm Calm - N/A   Clear
8:54 AM 50.0 °F - 50.0 °F 100% 29.99 in 6.0 mi Calm Calm - N/A   Clear
9:54 AM 54.0 °F - 48.9 °F 83% 30.00 in 10.0 mi Calm Calm - N/A   Clear
10:54 AM 55.9 °F - 48.9 °F 77% 30.02 in 10.0 mi Calm Calm - N/A   Clear
11:54 AM 64.0 °F - 51.1 °F 63% 29.99 in 10.0 mi Variable 3.5 mph - N/A   Clear
12:54 PM 69.1 °F - 48.0 °F 47% 29.97 in 10.0 mi South 8.1 mph - N/A   Clear
1:54 PM 71.1 °F - 46.9 °F 42% 29.94 in 10.0 mi Variable 4.6 mph - N/A   Clear
2:54 PM 71.1 °F - 46.9 °F 42% 29.91 in 10.0 mi Variable 4.6 mph - N/A   Clear
3:54 PM 71.1 °F - 46.0 °F 41% 29.90 in 10.0 mi South 6.9 mph - N/A   Clear
4:54 PM 70.0 °F - 46.0 °F 42% 29.90 in 10.0 mi South 3.5 mph - N/A   Clear
5:54 PM 68.0 °F - 46.0 °F 45% 29.90 in 10.0 mi SSE 4.6 mph - N/A   Clear
6:54 PM 61.0 °F - 48.9 °F 64% 29.91 in 10.0 mi Calm Calm - N/A   Clear
7:54 PM 59.0 °F - 48.9 °F 69% 29.92 in 10.0 mi SE 3.5 mph - N/A   Clear
8:54 PM 55.9 °F - 50.0 °F 80% 29.93 in 10.0 mi Calm Calm - N/A   Clear
9:54 PM 55.9 °F - 48.0 °F 75% 29.94 in 10.0 mi Calm Calm - N/A   Clear
10:54 PM 57.0 °F - 46.9 °F 69% 29.93 in 10.0 mi SSE 3.5 mph - N/A   Clear
11:54 PM 54.0 °F - 46.9 °F 77% 29.91 in 10.0 mi Calm Calm - N/A   Clear